When you browse on this site, cookies collect data to enhance your experience and personalize the content and advertising you see.
Visit our Privacy Policy to learn more. By continuing to use the site, you agree to this use of cookies and data.
  • en France
  • Liste des pays
  • À 7 jours
  • Température de l'eau
  • Carte météo
  • Widgets météo
  • user-avatar
    Se connecter

    Météo par heure à Perth

    Ce jour, 24 Août, Samedi

    Heure Température Précipitation Vent Pression Humidité
    00:00 +9°C° 0 mm 3 m/s 768 mmHg 73%
    01:00 +9°C° 0 mm 3 m/s 768 mmHg 73%
    02:00 +8°C° 0 mm 2 m/s 768 mmHg 73%
    03:00 +8°C° 0 mm 2 m/s 768 mmHg 75%
    04:00 +7°C° 0 mm 2 m/s 768 mmHg 77%
    05:00 +7°C° 0 mm 2 m/s 769 mmHg 79%
    06:00 +7°C° 0 mm 2 m/s 769 mmHg 77%
    07:00 +8°C° 0 mm 2 m/s 769 mmHg 76%
    08:00 +9°C° 0 mm 2 m/s 769 mmHg 78%
    09:00 +10°C° 0 mm 3 m/s 769 mmHg 71%
    10:00 +12°C° 0 mm 3 m/s 769 mmHg 64%
    11:00 +14°C° 0 mm 3 m/s 769 mmHg 57%
    12:00 +16°C° 0 mm 3 m/s 768 mmHg 54%
    13:00 +16°C° 0 mm 3 m/s 768 mmHg 52%
    14:00 +17°C° 0 mm 2 m/s 767 mmHg 51%
    15:00 +17°C° 0 mm 2 m/s 767 mmHg 54%
    16:00 +16°C° 0 mm 2 m/s 767 mmHg 57%
    17:00 +16°C° 0 mm 2 m/s 767 mmHg 60%
    18:00 +15°C° 0 mm 2 m/s 767 mmHg 64%
    19:00 +14°C° 0 mm 2 m/s 768 mmHg 68%
    20:00 +12°C° 0 mm 2 m/s 768 mmHg 72%
    21:00 +12°C° 0 mm 2 m/s 768 mmHg 72%
    22:00 +12°C° 0 mm 2 m/s 768 mmHg 72%
    23:00 +10°C° 0 mm 2 m/s 768 mmHg 72%

    Demain, 25 Août, Dimanche

    Heure Température Précipitation Vent Pression Humidité
    00:00 +10°C° 0 mm 3 m/s 768 mmHg 71%
    01:00 +10°C° 0 mm 3 m/s 767 mmHg 71%
    02:00 +10°C° 0 mm 4 m/s 767 mmHg 70%
    03:00 +10°C° 0 mm 4 m/s 767 mmHg 72%
    04:00 +8°C° 0 mm 4 m/s 767 mmHg 73%
    05:00 +8°C° 0 mm 4 m/s 767 mmHg 74%
    06:00 +8°C° 0 mm 4 m/s 767 mmHg 73%
    07:00 +10°C° 0 mm 4 m/s 767 mmHg 73%
    08:00 +10°C° 0 mm 4 m/s 767 mmHg 72%
    09:00 +12°C° 0 mm 3 m/s 768 mmHg 66%
    10:00 +14°C° 0 mm 3 m/s 768 mmHg 60%
    11:00 +17°C° 0 mm 3 m/s 768 mmHg 54%
    12:00 +17°C° 0 mm 3 m/s 767 mmHg 52%
    13:00 +18°C° 0 mm 3 m/s 766 mmHg 50%
    14:00 +19°C° 0 mm 3 m/s 765 mmHg 49%
    15:00 +18°C° 0 mm 3 m/s 766 mmHg 53%
    16:00 +18°C° 0 mm 3 m/s 766 mmHg 57%
    17:00 +17°C° 0 mm 3 m/s 766 mmHg 61%
    18:00 +16°C° 0 mm 3 m/s 767 mmHg 64%
    19:00 +14°C° 0 mm 3 m/s 767 mmHg 67%
    20:00 +13°C° 0 mm 3 m/s 767 mmHg 70%
    21:00 +12°C° 0 mm 3 m/s 767 mmHg 68%
    22:00 +12°C° 0 mm 3 m/s 767 mmHg 67%
    23:00 +13°C° 0 mm 2 m/s 767 mmHg 66%

    Après-demain, 26 Août, Lundi

    Heure Température Précipitation Vent Pression Humidité
    00:00 +12°C° 0 mm 2 m/s 767 mmHg 65%
    01:00 +12°C° 0 mm 2 m/s 767 mmHg 64%
    02:00 +12°C° 0 mm 2 m/s 767 mmHg 64%
    03:00 +11°C° 0 mm 3 m/s 767 mmHg 64%
    04:00 +10°C° 0 mm 3 m/s 767 mmHg 65%
    05:00 +10°C° 0 mm 3 m/s 767 mmHg 66%
    06:00 +10°C° 0 mm 3 m/s 767 mmHg 66%
    07:00 +11°C° 0 mm 3 m/s 768 mmHg 67%
    08:00 +11°C° 0 mm 4 m/s 768 mmHg 67%
    09:00 +13°C° 0 mm 4 m/s 768 mmHg 61%
    10:00 +15°C° 0 mm 4 m/s 768 mmHg 54%
    11:00 +18°C° 0 mm 4 m/s 768 mmHg 48%
    12:00 +19°C° 0 mm 3 m/s 767 mmHg 47%
    13:00 +19°C° 0 mm 3 m/s 766 mmHg 45%
    14:00 +20°C° 0 mm 2 m/s 766 mmHg 44%
    15:00 +19°C° 0 mm 2 m/s 766 mmHg 48%
    16:00 +19°C° 0 mm 2 m/s 766 mmHg 52%
    17:00 +18°C° 0 mm 2 m/s 766 mmHg 55%
    18:00 +17°C° 0 mm 2 m/s 766 mmHg 58%
    19:00 +16°C° 0 mm 3 m/s 766 mmHg 61%
    20:00 +13°C° 0 mm 3 m/s 766 mmHg 64%
    21:00 +13°C° 0 mm 3 m/s 766 mmHg 64%
    22:00 +12°C° 0 mm 3 m/s 766 mmHg 65%
    23:00 +12°C° 0 mm 3 m/s 767 mmHg 65%

    27 Août, Mardi

    Heure Température Précipitation Vent Pression Humidité
    00:00 +12°C° 0 mm 3 m/s 766 mmHg 63%
    01:00 +11°C° 0 mm 4 m/s 766 mmHg 62%
    02:00 +11°C° 0 mm 4 m/s 765 mmHg 60%
    03:00 +11°C° 0 mm 4 m/s 765 mmHg 59%
    04:00 +10°C° 0 mm 5 m/s 765 mmHg 58%
    05:00 +9°C° 0 mm 5 m/s 764 mmHg 58%
    06:00 +10°C° 0 mm 5 m/s 765 mmHg 57%
    07:00 +10°C° 0 mm 5 m/s 765 mmHg 57%
    08:00 +10°C° 0 mm 5 m/s 765 mmHg 57%
    09:00 +13°C° 0 mm 5 m/s 765 mmHg 54%
    10:00 +16°C° 0 mm 5 m/s 765 mmHg 51%
    11:00 +19°C° 0 mm 5 m/s 765 mmHg 48%
    12:00 +20°C° 0 mm 5 m/s 764 mmHg 48%
    13:00 +21°C° 0 mm 4 m/s 763 mmHg 47%
    14:00 +21°C° 0 mm 4 m/s 762 mmHg 47%
    15:00 +21°C° 0 mm 4 m/s 762 mmHg 51%
    16:00 +21°C° 0 mm 3 m/s 762 mmHg 55%
    17:00 +20°C° 0 mm 3 m/s 762 mmHg 59%
    18:00 +19°C° 0 mm 3 m/s 762 mmHg 61%
    19:00 +18°C° 0 mm 3 m/s 762 mmHg 63%
    20:00 +17°C° 0 mm 3 m/s 762 mmHg 65%
    21:00 +15°C° 0 mm 4 m/s 762 mmHg 61%
    22:00 +15°C° 0 mm 4 m/s 761 mmHg 57%
    23:00 +15°C° 0 mm 5 m/s 761 mmHg 53%

    28 Août, Mercredi

    Heure Température Précipitation Vent Pression Humidité
    00:00 +15°C° 0 mm 5 m/s 760 mmHg 51%
    01:00 +15°C° 0 mm 5 m/s 760 mmHg 49%
    02:00 +15°C° 0 mm 5 m/s 760 mmHg 46%
    03:00 +15°C° 0 mm 5 m/s 759 mmHg 47%
    04:00 +15°C° 0 mm 5 m/s 759 mmHg 47%
    05:00 +15°C° 0 mm 5 m/s 759 mmHg 47%
    06:00 +15°C° 0 mm 5 m/s 759 mmHg 49%
    07:00 +17°C° 0 mm 4 m/s 759 mmHg 50%
    08:00 +17°C° 0 mm 4 m/s 759 mmHg 51%
    09:00 +19°C° 0 mm 4 m/s 759 mmHg 50%
    10:00 +21°C° 0 mm 4 m/s 759 mmHg 49%
    11:00 +22°C° 0 mm 5 m/s 758 mmHg 48%
    12:00 +23°C° 0 mm 4 m/s 758 mmHg 47%
    13:00 +25°C° 0 mm 4 m/s 758 mmHg 46%
    14:00 +26°C° 0 mm 3 m/s 757 mmHg 46%
    15:00 +25°C° 0 mm 3 m/s 757 mmHg 51%
    16:00 +24°C° 0 mm 3 m/s 757 mmHg 56%
    17:00 +22°C° 0 mm 3 m/s 757 mmHg 61%
    18:00 +21°C° 0 mm 2 m/s 758 mmHg 68%
    19:00 +19°C° 0 mm 2 m/s 758 mmHg 75%
    20:00 +18°C° 0 mm 2 m/s 758 mmHg 82%
    21:00 +17°C° 0 mm 2 m/s 758 mmHg 85%
    22:00 +17°C° 0 mm 2 m/s 758 mmHg 88%
    23:00 +17°C° 0 mm 2 m/s 758 mmHg 91%

    29 Août, Jeudi

    Heure Température Précipitation Vent Pression Humidité
    00:00 +16°C° 0 mm 2 m/s 758 mmHg 91%
    01:00 +16°C° 0 mm 2 m/s 758 mmHg 92%
    02:00 +16°C° 0 mm 2 m/s 757 mmHg 93%
    03:00 +16°C° 0.1 mm 3 m/s 757 mmHg 92%
    04:00 +16°C° 0.1 mm 3 m/s 757 mmHg 92%
    05:00 +14°C° 0.1 mm 3 m/s 756 mmHg 92%
    06:00 +15°C° 0.1 mm 4 m/s 756 mmHg 90%
    07:00 +15°C° 0.1 mm 4 m/s 756 mmHg 88%
    08:00 +16°C° 0.1 mm 5 m/s 756 mmHg 86%
    09:00 +17°C° 0.1 mm 5 m/s 756 mmHg 79%
    10:00 +19°C° 0.1 mm 6 m/s 756 mmHg 73%
    11:00 +20°C° 0.1 mm 6 m/s 755 mmHg 66%
    12:00 +20°C° 0.3 mm 7 m/s 755 mmHg 66%
    13:00 +20°C° 0.3 mm 8 m/s 755 mmHg 66%
    14:00 +19°C° 0.3 mm 9 m/s 754 mmHg 67%
    15:00 +19°C° 0.2 mm 9 m/s 754 mmHg 68%
    16:00 +20°C° 0.2 mm 8 m/s 753 mmHg 69%
    17:00 +18°C° 0.2 mm 8 m/s 753 mmHg 70%
    18:00 +18°C° 0.3 mm 8 m/s 753 mmHg 72%
    19:00 +17°C° 0.3 mm 8 m/s 753 mmHg 75%
    20:00 +17°C° 0.3 mm 8 m/s 752 mmHg 77%
    21:00 +17°C° 4.3 mm 8 m/s 752 mmHg 79%
    22:00 +17°C° 4.3 mm 8 m/s 752 mmHg 81%
    23:00 +16°C° 4.3 mm 8 m/s 752 mmHg 83%
    Voir plus